{"data":{"norad_id":65749,"intl_designator":"2025-216R","name":"STARLINK-35288","alt_names":[],"object_type":"PAYLOAD","status":"ACTIVE","operator":null,"country":"US","launch_date":"2025-09-25","launch_site_code":"AFETR","launch_vehicle":null,"mission":null,"orbit_class":"UNKNOWN","rcs_meters":null,"size_class":null,"mass_kg":null,"dimensions":null,"purposes":["comms"],"wikipedia_slug":null,"has_3d_model":false,"image_url":null,"decayed_at":null,"tle_current":{"epoch":"2026-05-24T23:25:24.337632Z","epoch_age_seconds":73235,"freshness":"FRESH","line1":"1 65749U 25216R   26144.97597613  .00020133  00000+0  68965-3 0  9996","line2":"2 65749  53.1598 338.5325 0001205  97.1313 262.9825 15.30217913 38192","mean_motion":15.30217913,"eccentricity":0.0001205,"inclination_deg":53.1598,"raan_deg":338.5325,"arg_perigee_deg":97.1313,"mean_anomaly_deg":262.9825,"bstar":0.00068965,"rev_number":3819,"period_min":94.104244092717,"perigee_km":474.33576247243,"apogee_km":475.9874074314,"semimajor_km":6853.2985849519,"source":"CELESTRAK","updated_at":"2026-05-25T13:38:20.932497Z"}}}